Time,TemperatureF,DewpointF,PressureIn,WindDirection,WindDirectionDegrees,WindSpeedMPH,WindSpeedGustMPH,Humidity,HourlyPrecipIn,Conditions,Clouds,dailyrainin,SoftwareType,DateUTC
2013-05-21 00:08:00,53.8,45.5,29.99,WNW,292,5.3,11.8,74,0.00,,,0.00,WUHU21636XXSP,2013-05-21 05:08:00,
2013-05-21 00:18:00,53.4,45.3,30.00,NW,315,3.3,12.5,74,0.00,,,0.00,WUHU21636XXSP,2013-05-21 05:18:00,
2013-05-21 00:28:00,53.4,45.3,30.00,NW,315,4.0,10.5,74,0.00,,,0.00,WUHU21636XXSP,2013-05-21 05:28:00,
2013-05-21 00:38:00,53.4,45.3,29.99,NW,315,4.6,8.5,74,0.00,,,0.00,WUHU21636XXSP,2013-05-21 05:38:00,
2013-05-21 00:48:00,53.2,45.5,29.99,NW,315,4.0,6.7,75,0.00,,,0.00,WUHU21636XXSP,2013-05-21 05:48:00,
2013-05-21 00:58:00,53.2,45.5,29.99,WNW,292,2.6,5.1,75,0.00,,,0.00,WUHU21636XXSP,2013-05-21 05:58:00,
2013-05-21 01:08:00,53.4,45.7,30.00,WNW,292,4.0,4.9,75,0.00,,,0.00,WUHU21636XXSP,2013-05-21 06:08:00,
2013-05-21 01:18:00,53.8,45.5,30.00,WNW,292,5.8,6.2,74,0.00,,,0.00,WUHU21636XXSP,2013-05-21 06:18:00,
2013-05-21 01:28:00,54.0,45.7,30.00,West,270,1.1,12.5,74,0.00,,,0.00,WUHU21636XXSP,2013-05-21 06:28:00,
2013-05-21 01:38:00,54.1,45.1,30.00,NW,315,5.5,11.6,72,0.00,,,0.00,WUHU21636XXSP,2013-05-21 06:38:00,
2013-05-21 01:48:00,54.3,45.3,30.01,NW,315,5.3,15.2,72,0.00,,,0.00,WUHU21636XXSP,2013-05-21 06:48:00,
2013-05-21 01:58:00,54.5,45.1,30.01,NW,315,7.8,13.6,71,0.00,,,0.00,WUHU21636XXSP,2013-05-21 06:58:00,
2013-05-21 02:08:00,54.5,45.1,30.00,WNW,292,3.3,11.6,71,0.00,,,0.00,WUHU21636XXSP,2013-05-21 07:08:00,
2013-05-21 02:18:00,54.5,45.1,30.01,NW,315,7.8,12.3,71,0.00,,,0.00,WUHU21636XXSP,2013-05-21 07:18:00,
2013-05-21 02:28:00,54.5,45.0,30.00,WNW,292,3.3,12.5,70,0.00,,,0.00,WUHU21636XXSP,2013-05-21 07:28:00,
2013-05-21 02:38:00,54.5,45.0,30.00,NW,315,8.9,14.7,70,0.00,,,0.00,WUHU21636XXSP,2013-05-21 07:38:00,
2013-05-21 02:48:00,54.3,44.8,30.00,NW,315,9.3,14.7,70,0.00,,,0.00,WUHU21636XXSP,2013-05-21 07:48:00,
2013-05-21 02:58:00,54.3,44.2,30.00,NW,315,6.2,19.4,69,0.00,,,0.00,WUHU21636XXSP,2013-05-21 07:58:00,
2013-05-21 03:08:00,54.1,44.1,29.99,NW,315,7.8,16.1,69,0.00,,,0.00,WUHU21636XXSP,2013-05-21 08:08:00,
2013-05-21 03:18:00,54.1,44.6,29.99,NW,315,5.5,14.0,70,0.00,,,0.00,WUHU21636XXSP,2013-05-21 08:18:00,
2013-05-21 03:28:00,54.0,44.4,29.99,West,270,5.1,14.9,70,0.00,,,0.00,WUHU21636XXSP,2013-05-21 08:28:00,
2013-05-21 03:38:00,54.0,44.6,29.99,WNW,292,7.3,14.3,71,0.00,,,0.00,WUHU21636XXSP,2013-05-21 08:38:00,
2013-05-21 03:48:00,54.0,44.6,29.99,NW,315,7.8,20.5,71,0.00,,,0.00,WUHU21636XXSP,2013-05-21 08:48:00,
2013-05-21 03:58:00,54.1,44.8,29.99,WNW,292,3.8,14.3,71,0.00,,,0.00,WUHU21636XXSP,2013-05-21 08:58:00,
2013-05-21 04:08:00,54.0,45.0,29.99,NW,315,4.2,10.7,72,0.00,,,0.00,WUHU21636XXSP,2013-05-21 09:08:00,
2013-05-21 04:18:00,54.1,45.1,29.99,NW,315,6.0,10.2,72,0.00,,,0.00,WUHU21636XXSP,2013-05-21 09:18:00,
2013-05-21 04:28:00,54.0,45.0,29.99,NW,315,4.4,12.9,72,0.00,,,0.00,WUHU21636XXSP,2013-05-21 09:28:00,
2013-05-21 04:38:00,54.0,45.0,30.00,NW,315,5.1,8.9,72,0.00,,,0.00,WUHU21636XXSP,2013-05-21 09:38:00,
2013-05-21 04:48:00,53.8,44.8,30.00,NW,315,7.8,14.0,72,0.00,,,0.00,WUHU21636XXSP,2013-05-21 09:48:00,
2013-05-21 04:58:00,53.4,44.6,30.00,WNW,292,9.3,15.8,72,0.00,,,0.00,WUHU21636XXSP,2013-05-21 09:58:00,
2013-05-21 05:08:00,53.1,44.2,30.00,NW,315,7.6,16.5,72,0.00,,,0.00,WUHU21636XXSP,2013-05-21 10:08:00,
2013-05-21 05:18:00,52.5,44.1,30.01,NW,315,7.3,19.9,73,0.00,,,0.00,WUHU21636XXSP,2013-05-21 10:18:00,
2013-05-21 05:31:00,52.0,43.9,30.01,NW,315,8.0,17.6,74,0.00,,,0.00,WUHU21636XXSP,2013-05-21 10:31:00,
2013-05-21 05:40:00,51.4,43.7,30.01,WNW,292,7.8,17.0,75,0.00,,,0.00,WUHU21636XXSP,2013-05-21 10:40:00,
2013-05-21 05:50:00,50.9,42.8,30.02,WNW,292,7.1,18.7,74,0.00,,,0.00,WUHU21636XXSP,2013-05-21 10:50:00,
2013-05-21 06:00:00,50.5,42.8,30.02,WNW,292,8.9,15.8,75,0.00,,,0.00,WUHU21636XXSP,2013-05-21 11:00:00,
2013-05-21 06:10:00,50.4,42.6,30.02,NNW,337,8.2,19.0,75,0.00,,,0.00,WUHU21636XXSP,2013-05-21 11:10:00,
2013-05-21 06:20:00,50.4,42.6,30.02,NW,315,8.9,15.6,75,0.00,,,0.00,WUHU21636XXSP,2013-05-21 11:20:00,
2013-05-21 06:30:00,50.0,42.6,30.02,West,270,8.5,18.5,76,0.00,,,0.00,WUHU21636XXSP,2013-05-21 11:30:00,
2013-05-21 06:40:00,49.8,42.4,30.02,WNW,292,9.1,20.5,76,0.00,,,0.00,WUHU21636XXSP,2013-05-21 11:40:00,
2013-05-21 06:50:00,49.8,42.4,30.03,NW,315,8.0,18.5,76,0.00,,,0.00,WUHU21636XXSP,2013-05-21 11:50:00,
2013-05-21 07:00:00,49.8,42.4,30.02,WNW,292,10.5,17.4,76,0.00,,,0.00,WUHU21636XXSP,2013-05-21 12:00:00,
2013-05-21 07:10:00,49.8,42.1,30.02,WNW,292,6.7,19.0,75,0.00,,,0.00,WUHU21636XXSP,2013-05-21 12:10:00,
2013-05-21 07:20:00,50.0,42.3,30.02,WNW,292,7.6,17.2,75,0.00,,,0.00,WUHU21636XXSP,2013-05-21 12:20:00,
2013-05-21 07:30:00,50.4,42.3,30.02,NNW,337,8.2,18.3,74,0.00,,,0.00,WUHU21636XXSP,2013-05-21 12:30:00,
2013-05-21 07:40:00,50.5,42.4,30.03,North,0,9.8,19.4,74,0.00,,,0.00,WUHU21636XXSP,2013-05-21 12:40:00,
2013-05-21 07:50:00,50.9,42.4,30.03,NW,315,7.6,21.4,73,0.00,,,0.00,WUHU21636XXSP,2013-05-21 12:50:00,
2013-05-21 08:00:00,51.4,42.6,30.03,NW,315,8.0,25.0,72,0.00,,,0.00,WUHU21636XXSP,2013-05-21 13:00:00,
2013-05-21 08:10:00,52.0,42.8,30.04,West,270,7.3,21.6,71,0.00,,,0.00,WUHU21636XXSP,2013-05-21 13:10:00,
2013-05-21 08:20:00,52.5,43.0,30.04,WNW,292,8.5,19.9,70,0.00,,,0.00,WUHU21636XXSP,2013-05-21 13:20:00,
2013-05-21 08:30:00,53.1,43.9,30.04,WNW,292,7.6,21.2,71,0.00,,,0.00,WUHU21636XXSP,2013-05-21 13:30:00,
2013-05-21 08:40:00,53.4,43.3,30.04,NW,315,9.6,25.5,69,0.00,,,0.00,WUHU21636XXSP,2013-05-21 13:40:00,
2013-05-21 08:50:00,54.1,43.7,30.04,West,270,7.1,26.8,68,0.00,,,0.00,WUHU21636XXSP,2013-05-21 13:50:00,
2013-05-21 09:00:00,54.5,43.7,30.04,WNW,292,13.6,26.6,67,0.00,,,0.00,WUHU21636XXSP,2013-05-21 14:00:00,
2013-05-21 09:10:00,55.0,43.3,30.04,WNW,292,10.5,25.5,65,0.00,,,0.00,WUHU21636XXSP,2013-05-21 14:10:00,
2013-05-21 09:20:00,55.2,43.2,30.04,NNW,337,9.6,26.6,64,0.00,,,0.00,WUHU21636XXSP,2013-05-21 14:20:00,
2013-05-21 09:30:00,56.1,43.5,30.04,NW,315,10.7,20.3,63,0.00,,,0.00,WUHU21636XXSP,2013-05-21 14:30:00,
2013-05-21 09:40:00,56.3,43.3,30.04,NW,315,12.3,26.3,62,0.00,,,0.00,WUHU21636XXSP,2013-05-21 14:40:00,
2013-05-21 09:50:00,56.8,43.9,30.03,WNW,292,12.7,24.6,62,0.00,,,0.00,WUHU21636XXSP,2013-05-21 14:50:00,
2013-05-21 10:00:00,56.8,43.5,30.03,NW,315,11.8,27.9,61,0.00,,,0.00,WUHU21636XXSP,2013-05-21 15:00:00,
2013-05-21 10:10:00,57.4,43.5,30.02,NNW,337,12.0,29.9,60,0.00,,,0.00,WUHU21636XXSP,2013-05-21 15:10:00,
2013-05-21 10:20:00,57.9,43.7,30.02,NNW,337,8.5,29.0,59,0.00,,,0.00,WUHU21636XXSP,2013-05-21 15:20:00,
2013-05-21 10:31:00,58.5,43.7,30.02,WNW,292,10.5,27.2,58,0.00,,,0.00,WUHU21636XXSP,2013-05-21 15:31:00,
2013-05-21 10:41:00,58.8,43.5,30.02,NW,315,13.4,28.6,57,0.00,,,0.00,WUHU21636XXSP,2013-05-21 15:41:00,
2013-05-21 10:51:00,59.5,44.2,30.02,NW,315,14.5,28.4,57,0.00,,,0.00,WUHU21636XXSP,2013-05-21 15:51:00,
2013-05-21 11:01:00,59.7,43.3,30.02,NW,315,12.0,37.3,55,0.00,,,0.00,WUHU21636XXSP,2013-05-21 16:01:00,
2013-05-21 11:11:00,59.7,43.0,30.01,NNW,337,18.5,32.6,54,0.00,,,0.00,WUHU21636XXSP,2013-05-21 16:11:00,
2013-05-21 11:21:00,61.0,43.2,30.01,NW,315,14.7,30.8,52,0.00,,,0.00,WUHU21636XXSP,2013-05-21 16:21:00,
2013-05-21 11:31:00,61.0,43.2,30.01,NNW,337,15.2,30.1,52,0.00,,,0.00,WUHU21636XXSP,2013-05-21 16:31:00,
2013-05-21 11:41:00,60.6,43.7,30.01,North,0,10.5,23.9,54,0.00,,,0.00,WUHU21636XXSP,2013-05-21 16:41:00,
2013-05-21 11:51:00,61.2,43.7,30.00,North,0,9.3,29.0,53,0.00,,,0.00,WUHU21636XXSP,2013-05-21 16:51:00,
2013-05-21 12:01:00,61.7,43.3,30.00,North,0,8.5,27.7,51,0.00,,,0.00,WUHU21636XXSP,2013-05-21 17:01:00,
2013-05-21 12:11:00,61.7,43.3,30.00,North,0,4.2,26.1,51,0.00,,,0.00,WUHU21636XXSP,2013-05-21 17:11:00,
2013-05-21 12:21:00,61.7,43.3,29.99,NW,315,13.1,24.3,51,0.00,,,0.00,WUHU21636XXSP,2013-05-21 17:21:00,
2013-05-21 12:31:00,61.7,42.8,29.99,North,0,8.7,30.4,50,0.00,,,0.00,WUHU21636XXSP,2013-05-21 17:31:00,
2013-05-21 12:41:00,62.2,43.7,29.99,North,0,13.6,28.6,51,0.00,,,0.00,WUHU21636XXSP,2013-05-21 17:41:00,
2013-05-21 12:51:00,62.2,43.3,29.99,NNW,337,11.4,25.0,50,0.00,,,0.00,WUHU21636XXSP,2013-05-21 17:51:00,
2013-05-21 13:01:00,61.9,43.5,29.99,NW,315,6.2,25.5,51,0.00,,,0.00,WUHU21636XXSP,2013-05-21 18:01:00,
2013-05-21 13:11:00,61.9,43.5,29.99,NNW,337,15.2,26.6,51,0.00,,,0.00,WUHU21636XXSP,2013-05-21 18:11:00,
2013-05-21 13:21:00,63.0,43.9,29.98,NNW,337,14.0,29.5,50,0.00,,,0.00,WUHU21636XXSP,2013-05-21 18:21:00,
2013-05-21 13:31:00,63.5,43.3,29.98,NW,315,12.7,25.7,48,0.00,,,0.00,WUHU21636XXSP,2013-05-21 18:31:00,
2013-05-21 13:41:00,62.8,43.7,29.98,NNW,337,12.9,26.1,50,0.00,,,0.00,WUHU21636XXSP,2013-05-21 18:41:00,
2013-05-21 13:51:00,63.1,43.5,29.98,NNW,337,6.7,27.9,49,0.00,,,0.00,WUHU21636XXSP,2013-05-21 18:51:00,
2013-05-21 14:01:00,63.1,44.1,29.98,NW,315,9.8,27.2,50,0.00,,,0.00,WUHU21636XXSP,2013-05-21 19:01:00,
2013-05-21 14:11:00,64.6,43.7,29.97,NW,315,11.4,36.0,47,0.00,,,0.00,WUHU21636XXSP,2013-05-21 19:11:00,
2013-05-21 14:21:00,64.6,43.7,29.97,NE,45,11.8,27.7,47,0.00,,,0.00,WUHU21636XXSP,2013-05-21 19:21:00,
2013-05-21 14:31:00,64.8,43.3,29.97,NW,315,3.1,27.2,46,0.00,,,0.00,WUHU21636XXSP,2013-05-21 19:31:00,
2013-05-21 14:43:00,64.0,43.7,29.97,NNE,22,11.1,27.9,48,0.00,,,0.00,WUHU21636XXSP,2013-05-21 19:43:00,
2013-05-21 14:55:00,65.1,44.8,29.97,NNE,22,5.1,23.2,48,0.00,,,0.00,WUHU21636XXSP,2013-05-21 19:55:00,
2013-05-21 15:07:00,64.0,45.0,29.98,North,0,8.2,23.0,50,0.00,,,0.00,WUHU21636XXSP,2013-05-21 20:07:00,
2013-05-21 15:20:00,63.5,45.3,29.99,NNW,337,7.3,25.9,52,0.00,,,0.00,WUHU21636XXSP,2013-05-21 20:20:00,
2013-05-21 15:32:00,64.9,44.6,29.98,NW,315,4.9,22.5,48,0.00,,,0.00,WUHU21636XXSP,2013-05-21 20:32:00,
2013-05-21 15:44:00,65.3,45.0,29.98,North,0,7.6,29.3,48,0.00,,,0.00,WUHU21636XXSP,2013-05-21 20:44:00,
2013-05-21 15:57:00,65.1,44.2,29.98,NE,45,12.3,27.0,47,0.00,,,0.00,WUHU21636XXSP,2013-05-21 20:57:00,
2013-05-21 16:09:00,64.0,44.4,29.98,North,0,5.8,25.9,49,0.00,,,0.00,WUHU21636XXSP,2013-05-21 21:09:00,
2013-05-21 16:21:00,63.7,44.1,29.98,North,0,10.5,27.0,49,0.00,,,0.00,WUHU21636XXSP,2013-05-21 21:21:00,
2013-05-21 16:34:00,64.6,44.2,29.98,North,0,11.4,30.1,48,0.00,,,0.00,WUHU21636XXSP,2013-05-21 21:34:00,
2013-05-21 16:46:00,63.3,44.2,29.98,NNW,337,2.6,27.0,50,0.00,,,0.00,WUHU21636XXSP,2013-05-21 21:46:00,
2013-05-21 16:59:00,64.0,44.4,29.98,NW,315,7.6,25.9,49,0.00,,,0.00,WUHU21636XXSP,2013-05-21 21:59:00,
2013-05-21 17:11:00,63.1,43.5,29.98,NNW,337,15.2,23.4,49,0.00,,,0.00,WUHU21636XXSP,2013-05-21 22:11:00,
2013-05-21 17:24:00,64.0,44.4,29.98,North,0,7.3,24.8,49,0.00,,,0.00,WUHU21636XXSP,2013-05-21 22:24:00,
2013-05-21 17:36:00,63.9,43.5,29.99,North,0,23.0,31.7,48,0.00,,,0.00,WUHU21636XXSP,2013-05-21 22:36:00,
2013-05-21 17:48:00,62.8,43.2,30.01,NNE,22,11.8,20.8,49,0.00,,,0.00,WUHU21636XXSP,2013-05-21 22:48:00,
2013-05-21 18:01:00,61.9,43.5,30.01,NNE,22,9.8,21.0,51,0.00,,,0.00,WUHU21636XXSP,2013-05-21 23:01:00,
2013-05-21 18:13:00,61.0,43.2,30.01,NNW,337,8.0,20.5,52,0.00,,,0.00,WUHU21636XXSP,2013-05-21 23:13:00,
2013-05-21 18:26:00,60.4,43.5,30.02,NE,45,10.0,22.5,54,0.00,,,0.00,WUHU21636XXSP,2013-05-21 23:26:00,
2013-05-21 18:38:00,59.5,45.1,30.03,North,0,14.0,21.6,59,0.00,,,0.00,WUHU21636XXSP,2013-05-21 23:38:00,
2013-05-21 18:50:00,58.3,46.0,30.02,WNW,292,4.6,21.0,64,0.00,,,0.00,WUHU21636XXSP,2013-05-21 23:50:00,
2013-05-21 19:03:00,57.2,46.2,30.02,NNE,22,8.5,19.2,67,0.00,,,0.00,WUHU21636XXSP,2013-05-22 00:03:00,
2013-05-21 19:15:00,56.3,47.3,30.03,NNW,337,5.1,14.5,72,0.00,,,0.00,WUHU21636XXSP,2013-05-22 00:15:00,
2013-05-21 19:27:00,56.1,47.5,30.02,North,0,2.0,12.3,73,0.00,,,0.00,WUHU21636XXSP,2013-05-22 00:27:00,
2013-05-21 19:40:00,55.9,47.3,30.02,NNE,22,5.3,12.5,73,0.00,,,0.00,WUHU21636XXSP,2013-05-22 00:40:00,
2013-05-21 19:52:00,55.8,47.1,30.02,North,0,5.1,5.1,73,0.00,,,0.00,WUHU21636XXSP,2013-05-22 00:52:00,
2013-05-21 20:04:00,55.6,47.3,30.02,NNW,337,4.9,4.9,74,0.00,,,0.00,WUHU21636XXSP,2013-05-22 01:04:00,
2013-05-21 20:17:00,55.6,47.7,30.02,NNW,337,4.0,4.0,75,0.00,,,0.00,WUHU21636XXSP,2013-05-22 01:17:00,
2013-05-21 20:29:00,55.0,47.5,30.02,North,0,0.0,8.0,77,0.02,,,0.02,WUHU21636XXSP,2013-05-22 01:29:00,
2013-05-21 20:42:00,54.7,47.1,30.02,North,0,4.0,8.0,76,0.02,,,0.02,WUHU21636XXSP,2013-05-22 01:42:00,
2013-05-21 20:54:00,54.5,47.3,30.03,NNW,337,0.8,5.1,77,0.02,,,0.02,WUHU21636XXSP,2013-05-22 01:54:00,
2013-05-21 21:06:00,54.5,47.3,30.03,NW,315,1.3,4.4,77,0.02,,,0.02,WUHU21636XXSP,2013-05-22 02:06:00,
2013-05-21 21:19:00,54.3,47.1,30.03,NNW,337,0.0,2.9,77,0.02,,,0.02,WUHU21636XXSP,2013-05-22 02:19:00,
2013-05-21 21:31:00,54.1,46.9,30.03,North,0,3.3,3.8,77,0.02,,,0.02,WUHU21636XXSP,2013-05-22 02:31:00,
2013-05-21 21:43:00,54.0,46.8,30.04,NNE,22,5.8,11.6,77,0.02,,,0.02,WUHU21636XXSP,2013-05-22 02:43:00,
2013-05-21 21:56:00,53.8,46.6,30.04,NNE,22,5.3,8.2,77,0.02,,,0.02,WUHU21636XXSP,2013-05-22 02:56:00,
2013-05-21 22:08:00,53.4,46.0,30.05,NE,45,7.6,12.7,76,0.00,,,0.02,WUHU21636XXSP,2013-05-22 03:08:00,
2013-05-21 22:21:00,53.2,45.5,30.05,NNE,22,3.3,12.9,75,0.00,,,0.02,WUHU21636XXSP,2013-05-22 03:21:00,
2013-05-21 22:33:00,53.2,45.5,30.05,NNE,22,0.0,5.8,75,0.00,,,0.02,WUHU21636XXSP,2013-05-22 03:33:00,
2013-05-21 22:45:00,52.7,45.0,30.05,NE,45,8.9,10.9,75,0.00,,,0.02,WUHU21636XXSP,2013-05-22 03:45:00,
2013-05-21 22:58:00,52.5,44.4,30.05,NNE,22,6.0,8.0,74,0.00,,,0.02,WUHU21636XXSP,2013-05-22 03:58:00,
2013-05-21 23:10:00,52.0,44.2,30.05,NNE,22,8.0,9.6,75,0.00,,,0.02,WUHU21636XXSP,2013-05-22 04:10:00,
2013-05-21 23:22:00,51.8,44.1,30.05,North,0,4.4,10.9,75,0.00,,,0.02,WUHU21636XXSP,2013-05-22 04:22:00,
2013-05-21 23:35:00,51.6,43.9,30.05,North,0,1.5,10.9,75,0.00,,,0.02,WUHU21636XXSP,2013-05-22 04:35:00,
2013-05-21 23:47:00,51.6,43.9,30.05,North,0,4.9,4.9,75,0.00,,,0.02,WUHU21636XXSP,2013-05-22 04:47:00,
2013-05-21 23:59:00,51.4,43.7,30.05,NNE,22,0.0,10.0,75,0.00,,,0.02,WUHU21636XXSP,2013-05-22 04:59:00,